www.pogodaiklimat.ru

Погода и климат >> Архив погоды >> Россия >> Волгоградская область >> Калач-на-Дону


ПОГОДА в Калаче-на-Дону

  • Прогноз погоды в Калаче-на-Дону
  • Монитор погоды в Калаче-на-Дону

АРХИВ ПОГОДЫ в Калаче-на-Дону

Время (UTC), дата Ветер
(напр.,м/с)
 
Видим.   Явления Облачность Т
(С)
Тd
(С)
f
(%)
Тe
(С)
Тes
(С)
Комфортность P
(гПа)
Po
(гПа)
Тmin
(С)
Tmax
(С)
R
(мм)
R24
(мм)
S
(см)
18 11.08 СЗ 2
{11}
10 км 3/0
[Ac trans]
+18.3 +5.4 43 +19 +19 1014.3 1009.8
21 11.08 СЗ 2 10 км 9/0
[Ac trans]
+17.1 +6.5 50 +17 +17 1014.6 1010.1
00 12.08 штиль 0 10 км 8/0
[Ac trans]
+13.5 +7.6 67 +13 +13 1015.1 1010.5
03 12.08 С 1 20 км 4/0
[Ac trans]
+13.9 +9.6 75 +14 +15 1015.8 1011.2 +12.0
06 12.08 СЗ 1 20 км 3/0
[Ci fib]
+21.0 +10.0 49 +24 +33 комфорт 1016.0 1011.6
09 12.08 С 4
{10}
20 км 4/4 1000 м
[Cu hum]
+23.7 +6.0 32 +24 +30 комфорт 1015.8 1011.4
12 12.08 С 4
{10}
20 км ясно +25.2 +3.4 24 +24 +31 комфорт 1015.5 1011.1
15 12.08 С 5
{10}
20 км ясно +23.5 +3.3 27 +23 +24 комфорт 1016.3 1011.9 +25.4
18 12.08 СЗ 1 10 км ясно +14.8 +7.9 63 +15 +15 1017.5 1012.9
21 12.08 штиль 0 10 км ясно +12.5 +7.0 69 +12 +12 1018.0 1013.4
00 13.08 СЗ 2 10 км ясно +14.0 +6.2 59 +14 +14 1018.5 1013.9
03 13.08 СЗ 2 20 км ясно +14.2 +6.2 59 +14 +15 1019.3 1014.7 +10.1
06 13.08 С 4 20 км 1/0
[Ci fib]
+21.5 +5.0 34 +22 +28 комфорт 1019.4 1014.9
09 13.08 С 5
{10}
20 км 6/6 1000 м
[Cu hum]
+25.3 +7.4 32 +25 +29 комфорт 1018.5 1014.1
12 13.08 С 3
{10}
20 км 6/6 1000 м
[Cu hum]
+27.1 +7.0 28 +27 +30 жарко 1017.2 1012.9
15 13.08 С 3 20 км 8/0
[Ci fib]
+26.5 +6.7 28 +26 +27 жарко 1016.7 1012.3 +27.6
18 13.08 штиль 0 10 км ясно +16.4 +11.7 74 +16 +16 1017.8 1013.2
21 13.08 ЮВ 1 10 км ясно +13.6 +10.6 82 +14 +14 1018.1 1013.5
00 14.08 штиль 0 10 км ясно +11.6 +9.2 85 +11 +11 1017.8 1013.2
03 14.08 штиль 0 20 км ясно +14.0 +9.6 75 +14 +14 1018.2 1013.6 +10.7
06 14.08 ЮВ 2 20 км ясно +23.5 +11.9 48 +25 +34 комфорт 1018.1 1013.7
09 14.08 ЮВ 3 20 км ясно +28.6 +10.2 32 +29 +41 жарко 1016.7 1012.3
12 14.08 Ю 3 20 км ясно +30.1 +11.4 32 +31 +38 жарко 1015.1 1010.8
15 14.08 Ю 2 20 км ясно +29.7 +10.2 30 +30 +31 жарко 1014.4 1010.1 +30.8
18 14.08 СЗ 1 10 км ясно +25.8 +10.6 38 +27 +27 жарко 1014.7 1010.3
21 14.08 З 1 10 км ясно +18.9 +13.6 71 +21 +21 комфорт 1014.7 1010.2
00 15.08 штиль 0 10 км ясно +16.5 +13.8 84 +16 +16 1014.6 1010.1
03 15.08 штиль 0 20 км ясно +18.1 +13.7 75 +18 +19 1015.0 1010.5 +15.3
06 15.08 ЮВ 1 20 км ясно +27.6 +12.8 40 +29 +39 жарко 1014.9 1010.5
09 15.08 Ю 2 20 км ясно +33.4 +12.0 27 +33 +48 жарко 1013.6 1009.3
12 15.08 Ю 2 20 км 1/1 1000 м
[Cu hum]
+35.2 +12.3 25 +35 +43 очень
жарко
1012.0 1007.8
15 15.08 ЮВ 2 20 км ясно +33.3 +12.5 28 +34 +34 очень
жарко
1011.1 1006.8 +35.3
18 15.08 Ю 1 10 км ясно +23.0 +17.8 73 +28 +28 душно 1011.8 1007.4
21 15.08 штиль 0 10 км ясно +19.5 +17.0 85 +21 +21 комфорт 1012.5 1008.0
00 16.08 штиль 0 10 км ясно +16.9 +15.4 91 +17 +17 1012.0 1007.5
03 16.08 Ю 1 20 км 1/0
[Ac trans]
+17.9 +14.3 79 +19 +20 1012.6 1008.1 +15.5
06 16.08 Ю 3 20 км 9/0
[Ci]
+25.5 +9.2 36 +26 +32 жарко 1012.5 1008.1
09 16.08 Ю 3 20 км 8/0
[Ci]
+30.7 +9.8 27 +30 +40 жарко 1011.0 1006.7
12 16.08 Ю 4
{11}
20 км 9/0
[Ac As Ci sp]
+31.1 +9.5 26 +30 +34 жарко 1008.9 1004.6
15 16.08 Ю 1 20 км 9/0
[Ac As Ci sp]
+29.7 +11.0 31 +30 +31 жарко 1008.2 1003.9 +32.6
18 16.08 Ю 1 10 км 10/0
[Ac As Ci sp]
+23.0 +11.8 49 +25 +25 комфорт 1008.9 1004.5
21 16.08 Ю 3 10 км 10/0
[Ac und]
+26.2 +7.1 30 +26 +26 жарко 1009.3 1004.9
00 17.08 ЮВ 1 10 км 10/0
[Ac und]
+22.6 +9.3 43 +24 +24 комфорт 1010.0 1005.6
03 17.08 ЮВ 1 20 км 10/3 600 м
[Sc Ac As Ci]
+21.2 +10.5 50 +23 +23 комфорт 1009.5 1005.1 +20.6
06 17.08 штиль 0 20 км 9/0
[Ac As]
+24.0 +12.5 49 +26 +30 жарко 1010.1 1005.8 +20.5
09 17.08 Ю 3 20 км 9/0
[Ac As]
+27.3 +9.6 33 +28 +32 жарко 1008.8 1004.5
12 17.08 Ю 4
{10}
20 км 9/0
[Ac As]
+29.5 +9.1 28 +29 +31 жарко 1008.3 1004.0
15 17.08 ЮЗ 2 20 км 9/0
[Ac As Ci fib]
+28.8 +13.8 40 +31 +31 жарко 1008.2 1003.9 +30.9
18 17.08 ЮВ 1 10 км 8/0
[Ci fib]
+23.0 +16.7 68 +28 +28 душно 1009.1 1004.7
21 17.08 ЮВ 2 10 км ясно +21.2 +16.4 74 +25 +25 комфорт 1009.6 1005.1
00 18.08 СВ 1 10 км ясно +18.2 +16.1 88 +20 +20 1010.2 1005.7
03 18.08 штиль 0 20 км 8/0
[Ci sp]
+18.6 +16.5 88 +19 +20 1010.8 1006.3 +17.3
06 18.08 Ю 1 20 км 8/0
[Ac trans]
+27.4 +16.0 50 +31 +36 душно 1011.0 1006.6
09 18.08 Ю 1 20 км 8/5 600 м
[Cb cap Ac trans]
+31.8 +9.4 25 +31 +36 жарко 1010.0 1005.8
12 18.08 Ю 2
{11}
20 км 9/9 600 м
[Cb cap]
+32.2 +9.2 24 +31 +32 жарко 1010.2 1005.9

 

Местоположение метеостанции Калач-на-Дону (Волгоградская область, Россия): широта 48.68 долгота 43.48 высота над уровнем моря 38 м.

В архиве по умолчанию представлена погода в Калаче-на-Дону за последнюю неделю. Архивные данные за месяц целиком и за предыдущие месяцы, начиная с января 2011 года, Вы можете получить, выбрав интересующий диапазон дат из раскрывающегося списка и нажав кнопку "Ввод!".


*Определитесь, кто Вы:
робот инопланетянин человек

Внимание! Время в таблицах - всемирное. Для получения местного времени необходимо прибавить поправку, которая равна 3 ч.

Смотрите также архив погоды в соседних городах и на ближайших метеорологических станциях:

Погода в Нижнем Чире (Волгоградская область, Россия) (47 км)
Погода в Волгограде (Волгоградская область, Россия) (66 км)
Погода в Волгограде город (Волгоградская область, Россия) (71 км)
Погода в Иловле (Волгоградская область, Россия) (79 км)
Погода в Серафимовиче (Волгоградская область, Россия) (113 км)
Погода в Котельниково (Волгоградская область, Россия) (119 км)
Погода в Малых Дербетах (Калмыкия, Россия) (123 км)
Погода в Морозовске (Ростовская область, Россия) (124 км)
Погода в Фролове (Волгоградская область, Россия) (125 км)
Погода в Боковской (Ростовская область, Россия) (135 км)

Пояснения к столбцам:

Ветер - указаны скорость ветра в м/с - средняя за 10 мин, порывы в срок и между сроками (в фигурных скобках) и направление, откуда дует ветер: С - северный, СВ - северо-восточный, В - восточный, ЮВ - юго-восточный, Ю - южный, ЮЗ - юго-западный, З - западный, СЗ - северо-западный.
Видимость - горизонтальная дальность видимости в метрах или километрах. При видимости от 1 до 10 км при отсутствии осадков обычно наблюдается дымка, при ухудшении видимости до 1 км и менее - туман. В сухую погоду видимость может ухудшаться дымом, пылью или мглою.
Явления - указаны атмосферные явления, наблюдавшиеся в срок или в последний час перед сроком; фигурными скобками обозначены явления, наблюдавшиеся между сроками (за 1-3 часа до срока); квадратными скобками обозначены град или гололедные отложения с указанием их диаметра в мм.
Облачность - указаны через наклонную черту общая и нижняя облачность в баллах и высота нижней границы облаков в метрах; квадратными скобками обозначены формы облаков: Ci - перистые, Cs - перисто-слоистые, Cc - перисто-кучевые, Ac - высококучевые, As - высокослоистые, Sc - слоисто-кучевые, Ns - слоисто-дождевые, Cu - кучевые, Cb - кучево-дождевые. Подробнее классификацию облаков см. в Атласе облаков (PDF).
T - Температура воздуха - температура, измеренная на высоте 2 м над землей.
Td - Температура точки росы - температура, при понижении до которой содержащийся в воздухе водяной пар достигнет насыщения.
f - Относительная влажность воздуха - влажноcть воздуха, измеренная на высоте 2 м над землей.
Te - Эффективная температура - температура, которую ощущает одетый по сезону человек в тени. Характеристика душности погоды. При расчете учитывается влияние влажности воздуха и скорости ветра на теплоощущения человека.
Tes - Эффективная температура на солнце - температура, которую ощущает человек, с поправкой на солнечный нагрев. Характеристика знойности погоды. Зависит от высоты солнца над горизонтом, облачности и скорости ветра. Ночью, в пасмурную погоду, а также при ветре 12 м/с и более поправка равна нулю.
P - Атмосферное давление - приведенное к уровню моря атмосферное давление.
Po - Атмосферное давление - измеренное на уровне метеостанции атмосферное давление.
Tmin - Минимальная температура - минимум температуры воздуха на высоте 2 м над землей.
Tmax - Максимальная температура - максимум температуры воздуха на высоте 2 м над землей.
R - Количество осадков - Количество выпавших осадков за период времени, мм. При наведении курсора мыши на число - период времени, за который выпало указанное количество осадков.
R24 - Количество осадков - Количество выпавших осадков за 24 часа, мм.
S - Снежный покров - Высота снежного покрова, см. При наведении курсора мыши на число - состояние снежного покрова и степень покрытия местности в баллах.